"Pseudo-MPEC" for P10Ny0A

Created 2019 May 30 14:07:20 UT using Find_Orb

Click here for an explanation of pseudo-MPECs

 
 Astrometry: 
     P10Ny0A  C2019 05 07.HmnO'%uq+^xH-u5ghH09O:-GIU:Astrometryq*AvYl[qD*3QYIF51
     P10Ny0A  C2019 05 07P#aF%%0?C_YP,\`TDv*$hfO3Jcd]f]3CDYI#jh)!*j^jD8i@BGcbF51
     P10Ny0A  C2019 05 07vvf9:J%Q]#Oredacted;qLRan,Do74-[YyJSvq^nlK--ug82jh)pF51
     P10Ny0A  C2019 05 08.45226 15 27 27.03 +21 26 27.3    ~58BM 23.2 GVNEOCPV06
     P10Ny0A  C2019 05 08.45543 15 27 26.75 +21 26 27.0    ~58BM 21.8 GVNEOCPV06
     P10Ny0A  C2019 05 08.45860 15 27 26.47 +21 26 26.5    ~58BM 22.4 GVNEOCPV06
     P10Ny0A  C2019 05 08.46178 15 27 26.20 +21 26 26.4    ~58BM 22.6 GVNEOCPV06
     P10Ny0A  C2019 05 11@jdMi3#uy6tJjpuclick`/CShereZQ:/forrRA@Kf;oPB^=`l9RgF51
     P10Ny0A  C2019 05 11=v797F\jZg^i9jexplanation1U1\A+KHjCb,5!8Vs5n2:Hpuj.)F51

Station data:
(F51) Pan-STARRS 1, Haleakala  (N20.707235 W156.255910)  US/Hawaii.
   Observers N. Primak, A. Schultz, S. Watters, J. Thiel, T. Goggia. Measurer
   PS1 Science Consortium. 1.8-m Ritchey-Chrétien + CCD.
(V06) Catalina Sky Survey-Kuiper  (N32.416847 W110.732550)  US/Arizona.
   Observers T. A. Pruyne, B. M. Africano, E. J. Christensen, G. A. Farneth,
   D. C. Fuls, A. R. Gibbs, A. D. Grauer, H. Groeller, J. A. Johnson, R. A.
   Kowalski, S. M. Larson, G. J. Leonard, R. L. Seaman, F. C. Shelly. 1.55-m
   reflector + CCD.

Orbital elements:  P10Ny0A
   Perihelion 2020 Jul 28.061735 +/- 10.9 TT =  1:28:53 (JD 2459058.561735)
Epoch 2019 May 11.0 TT = JDT 2458614.5   Earth MOID: 0.7473   AutoNEOCP
M 190.73226934 +/- 4.6              (J2000 ecliptic)
n   0.38118062 +/- 0.00164          Peri.  290.94148 +/- 3.3
a   1.88386091 +/- 0.0054           Node   104.04123 +/- 0.45
e   0.1285442 +/- 0.00367           Incl.   24.66384 +/- 0.19
P   2.59/944.42d           H 19.5   G  0.15   U  8.5  
q 1.64170138 +/- 0.00542    Q 2.12602044 +/- 0.0117
From 9 observations 2019 May 7-11; mean residual 0".14
Residuals in arcseconds: 
190507 F51  .01+  .03+    190508 V06  .39+  .01+    190508 V06  .31-  .09+    
190507 F51  .04+  .06+    190508 V06  .11+  .03+    190511 F51  .04-  .07+    
190507 F51  .05-  .09-    190508 V06  .18-  .14-    190511 F51  .04+  .07-    

Ephemerides (geocentric):
Date (UTC) HH   RA              Dec         delta   r     elong  mag " sig PA
---- -- -- --  -------------   -----------  ------ ------ -----  --- ---- ---
2019 05 30 14  14 59 21.952   +18 55 14.84  1.2829 2.1165 134.0 22.6 42.0 165
2019 05 30 15  14 59 19.243   +18 54 45.53  1.2831 2.1165 133.9 22.6 42.2 165
2019 05 30 16  14 59 16.536   +18 54 16.18  1.2832 2.1164 133.9 22.6 42.3 165
2019 05 30 17  14 59 13.832   +18 53 46.79  1.2834 2.1164 133.9 22.6 42.5 165
2019 05 30 18  14 59 11.131   +18 53 17.36  1.2836 2.1164 133.9 22.6 42.7 165
2019 05 30 19  14 59 08.433   +18 52 47.89  1.2837 2.1164 133.9 22.6 42.8 165
2019 05 30 20  14 59 05.737   +18 52 18.38  1.2839 2.1164 133.8 22.6 43.0 165
2019 05 30 21  14 59 03.044   +18 51 48.83  1.2841 2.1164 133.8 22.6 43.1 165
2019 05 30 22  14 59 00.354   +18 51 19.24  1.2842 2.1163 133.8 22.6 43.3 165
2019 05 30 23  14 58 57.667   +18 50 49.61  1.2844 2.1163 133.8 22.6 43.5 165
2019 05 31 00  14 58 54.982   +18 50 19.94  1.2846 2.1163 133.7 22.6 43.6 165
2019 05 31 01  14 58 52.300   +18 49 50.23  1.2847 2.1163 133.7 22.6 43.8 165
2019 05 31 02  14 58 49.621   +18 49 20.48  1.2849 2.1163 133.7 22.6 44.0 165
2019 05 31 03  14 58 46.945   +18 48 50.69  1.2851 2.1163 133.7 22.6 44.1 165
2019 05 31 04  14 58 44.271   +18 48 20.86  1.2853 2.1162 133.6 22.6 44.3 165
2019 05 31 05  14 58 41.600   +18 47 50.99  1.2854 2.1162 133.6 22.6 44.5 165
2019 05 31 06  14 58 38.932   +18 47 21.08  1.2856 2.1162 133.6 22.6 44.6 165
2019 05 31 07  14 58 36.267   +18 46 51.14  1.2858 2.1162 133.6 22.6 44.8 165
2019 05 31 08  14 58 33.604   +18 46 21.15  1.2859 2.1162 133.6 22.6 45.0 165
2019 05 31 09  14 58 30.944   +18 45 51.13  1.2861 2.1161 133.5 22.6 45.1 165
2019 05 31 10  14 58 28.287   +18 45 21.06  1.2863 2.1161 133.5 22.6 45.3 165
2019 05 31 11  14 58 25.633   +18 44 50.96  1.2864 2.1161 133.5 22.6 45.5 165
2019 05 31 12  14 58 22.982   +18 44 20.81  1.2866 2.1161 133.5 22.6 45.6 165
2019 05 31 13  14 58 20.333   +18 43 50.63  1.2868 2.1161 133.4 22.6 45.8 165
2019 05 31 14  14 58 17.687   +18 43 20.41  1.2870 2.1161 133.4 22.6 46.0 165
2019 05 31 15  14 58 15.044   +18 42 50.15  1.2871 2.1160 133.4 22.6 46.2 165
2019 05 31 16  14 58 12.404   +18 42 19.85  1.2873 2.1160 133.4 22.6 46.3 165
2019 05 31 17  14 58 09.767   +18 41 49.51  1.2875 2.1160 133.3 22.6 46.5 165
2019 05 31 18  14 58 07.132   +18 41 19.13  1.2876 2.1160 133.3 22.6 46.7 164
2019 05 31 19  14 58 04.500   +18 40 48.71  1.2878 2.1160 133.3 22.6 46.8 164
2019 05 31 20  14 58 01.872   +18 40 18.26  1.2880 2.1160 133.3 22.6 47.0 164
2019 05 31 21  14 57 59.245   +18 39 47.76  1.2882 2.1159 133.2 22.6 47.2 164
2019 05 31 22  14 57 56.622   +18 39 17.23  1.2883 2.1159 133.2 22.6 47.3 164
2019 05 31 23  14 57 54.002   +18 38 46.65  1.2885 2.1159 133.2 22.6 47.5 164
2019 06 01 00  14 57 51.384   +18 38 16.04  1.2887 2.1159 133.2 22.6 47.7 164
2019 06 01 01  14 57 48.770   +18 37 45.39  1.2889 2.1159 133.2 22.6 47.9 164
2019 06 01 02  14 57 46.158   +18 37 14.71  1.2890 2.1159 133.1 22.6 48.0 164
2019 06 01 03  14 57 43.549   +18 36 43.98  1.2892 2.1158 133.1 22.7 48.2 164
2019 06 01 04  14 57 40.943   +18 36 13.21  1.2894 2.1158 133.1 22.7 48.4 164
2019 06 01 05  14 57 38.340   +18 35 42.41  1.2896 2.1158 133.1 22.7 48.6 164
2019 06 01 06  14 57 35.739   +18 35 11.57  1.2897 2.1158 133.0 22.7 48.7 164
2019 06 01 07  14 57 33.142   +18 34 40.69  1.2899 2.1158 133.0 22.7 48.9 164
2019 06 01 08  14 57 30.547   +18 34 09.77  1.2901 2.1158 133.0 22.7 49.1 164
2019 06 01 09  14 57 27.955   +18 33 38.81  1.2903 2.1157 133.0 22.7 49.2 164
2019 06 01 10  14 57 25.366   +18 33 07.81  1.2905 2.1157 132.9 22.7 49.4 164
2019 06 01 11  14 57 22.781   +18 32 36.78  1.2906 2.1157 132.9 22.7 49.6 164
2019 06 01 12  14 57 20.197   +18 32 05.71  1.2908 2.1157 132.9 22.7 49.8 164
2019 06 01 13  14 57 17.617   +18 31 34.60  1.2910 2.1157 132.9 22.7 49.9 164